period_start,C,m1,H,J0,J1,J2,J3,J4,J5,JA,JB,JC,JD,JJ,JK,JN,#
2014-07-06 00:00:24,0.00,0.27,0.00,29.18,33.65,35.91,9.34,37.39,1006.55,2012.98,3380.00,3197.95,3472.00,500.10,481.75,42.45,0000 0000 0000 0000 000000
2014-07-06 00:05:25,0.00,0.27,0.00,29.20,33.65,35.92,9.18,37.27,1006.44,2012.98,3380.00,3197.88,3471.99,499.82,481.44,42.49,0000 0000 0000 0000 000000
2014-07-06 00:10:26,0.01,0.27,0.00,29.22,33.65,35.91,9.35,37.52,1006.42,2012.94,3379.99,3197.43,3471.84,500.04,481.70,42.53,0000 0000 0000 0000 000000
2014-07-06 00:15:27,0.01,0.27,0.00,29.25,33.67,35.91,9.26,37.32,1006.46,2012.94,3379.91,3197.19,3471.65,499.87,481.52,42.57,0000 0000 0000 0000 000000
2014-07-06 00:20:29,0.01,0.28,0.00,29.27,33.67,35.92,9.26,37.58,1006.42,2012.90,3379.32,3197.04,3471.16,500.24,481.67,42.62,0000 0000 0000 0000 000000
2014-07-06 00:25:30,0.00,0.28,0.00,29.30,33.67,35.93,9.22,38.17,1006.38,2012.85,3379.03,3197.00,3471.03,500.00,481.52,42.66,0000 0000 0000 0000 000000
2014-07-06 00:30:31,0.00,0.28,0.00,29.32,33.68,35.93,9.26,38.63,1006.39,2012.85,3379.00,3197.00,3471.01,500.03,481.48,42.70,0000 0000 0000 0000 000000
2014-07-06 00:35:32,0.00,0.28,0.00,29.34,33.70,35.93,9.31,38.38,1006.39,2012.87,3379.00,3197.00,3471.00,499.76,481.02,42.74,0000 0000 0000 0000 000000
2014-07-06 00:40:33,-0.01,0.28,0.00,29.37,33.70,35.94,9.22,37.96,1006.39,2012.83,3378.94,3196.94,3470.97,499.69,481.00,42.78,0000 0000 0000 0000 000000
2014-07-06 00:45:34,-0.00,0.28,0.00,29.39,33.72,35.95,9.29,38.35,1006.38,2012.47,3378.47,3196.60,3470.68,500.19,481.52,42.82,0000 0000 0000 0000 000000
2014-07-06 00:50:35,-0.01,0.28,0.00,29.40,33.72,35.97,9.22,37.58,1006.38,2012.28,3378.21,3196.20,3470.25,499.67,481.01,42.87,0000 0000 0000 0000 000000
2014-07-06 00:55:36,0.00,0.28,0.00,29.43,33.75,35.98,9.20,37.42,1006.38,2012.14,3378.03,3196.04,3470.02,500.47,481.81,42.91,0000 0000 0000 0000 000000
2014-07-06 01:00:37,-0.00,0.28,0.00,29.46,33.75,36.00,9.23,37.59,1006.39,2012.18,3378.00,3196.01,3470.01,499.96,481.13,42.95,0000 0000 0000 0000 000000
2014-07-06 01:05:38,-0.00,0.28,0.00,29.49,33.77,36.00,9.28,37.60,1006.39,2012.11,3377.98,3196.00,3470.00,499.77,481.18,42.99,0000 0000 0000 0000 000000
2014-07-06 01:10:39,0.00,0.28,0.00,29.52,33.79,36.03,9.31,37.63,1006.39,2012.12,3377.92,3196.00,3469.99,500.08,481.20,43.03,0000 0000 0000 0000 000000
2014-07-06 01:15:40,0.01,0.28,0.00,29.55,33.80,36.04,9.27,37.49,1006.37,2012.04,3377.29,3195.96,3469.75,500.23,481.11,43.07,0000 0000 0000 0000 000000
2014-07-06 01:20:41,0.01,0.28,0.00,29.58,33.82,36.05,9.27,37.81,1006.38,2012.02,3377.04,3195.77,3469.35,500.09,481.22,43.12,0000 0000 0000 0000 000000
2014-07-06 01:25:42,0.02,0.28,0.00,29.59,33.84,36.07,9.18,37.38,1006.37,2012.00,3377.00,3195.18,3469.02,499.85,480.85,43.16,0000 0000 0000 0000 000000
2014-07-06 01:30:44,0.00,0.28,0.00,29.62,33.86,36.08,9.27,37.04,1006.36,2012.00,3376.96,3195.06,3469.00,499.78,480.85,43.20,0000 0000 0000 0000 000000
2014-07-06 01:35:45,0.00,0.28,0.00,29.64,33.88,36.11,9.23,37.16,1006.36,2012.00,3376.79,3195.00,3468.96,499.54,480.46,43.24,0000 0000 0000 0000 000000
2014-07-06 01:40:46,0.02,0.28,0.00,29.68,33.90,36.13,9.28,37.33,1006.36,2012.00,3376.23,3194.98,3468.66,500.13,480.84,43.28,0000 0000 0000 0000 000000
2014-07-06 01:45:47,0.01,0.28,0.00,29.70,33.92,36.15,9.34,37.34,1006.36,2011.99,3376.02,3194.90,3468.24,500.41,481.21,43.32,0000 0000 0000 0000 000000
2014-07-06 01:50:48,0.02,0.28,0.00,29.72,33.95,36.16,9.25,37.73,1006.30,2011.98,3375.98,3194.43,3468.01,499.96,480.65,43.36,0000 0000 0000 0000 000000
2014-07-06 01:55:49,0.00,0.28,0.00,29.76,33.97,36.19,9.23,37.39,1006.15,2011.95,3375.90,3194.03,3468.00,500.05,480.49,43.41,0000 0000 0000 0000 000000
2014-07-06 02:00:50,0.01,0.28,0.00,29.80,33.99,36.21,9.17,37.10,1005.96,2011.93,3375.55,3194.00,3467.90,499.75,480.20,43.45,0000 0000 0000 0000 000000
2014-07-06 02:05:51,-0.03,0.28,0.00,29.85,34.01,36.24,9.19,37.03,1005.89,2011.52,3375.07,3193.98,3467.22,500.24,480.71,43.49,0000 0000 0000 0000 000000
2014-07-06 02:10:52,-0.01,0.28,0.00,29.89,34.04,36.26,9.30,37.20,1005.88,2011.25,3375.00,3193.70,3467.00,500.44,480.78,43.53,0000 0000 0000 0000 000000
2014-07-06 02:15:53,0.01,0.28,0.00,29.91,34.07,36.29,9.18,37.19,1005.87,2011.06,3374.72,3193.13,3466.97,499.59,479.88,43.57,0000 0000 0000 0000 000000
2014-07-06 02:20:55,0.02,0.28,0.00,29.87,34.09,36.32,9.27,37.15,1005.87,2011.00,3374.07,3193.00,3466.40,500.41,480.87,43.61,0000 0000 0000 0000 000000
2014-07-06 02:25:56,0.00,0.28,0.00,29.86,34.12,36.35,9.29,37.10,1005.88,2011.00,3374.00,3192.96,3466.02,499.84,480.16,43.66,0000 0000 0000 0000 000000
2014-07-06 02:30:56,0.01,0.28,0.00,29.84,34.14,36.38,9.26,37.11,1005.90,2011.00,3373.93,3192.79,3466.00,499.91,480.46,43.70,0000 0000 0000 0000 000000
2014-07-06 02:35:57,0.03,0.28,0.00,29.84,34.16,36.40,9.31,37.04,1005.89,2010.99,3373.21,3192.19,3465.79,500.07,480.43,43.74,0000 0000 0000 0000 000000
2014-07-06 02:40:58,0.01,0.28,0.00,29.86,34.18,36.42,9.21,37.14,1005.89,2010.96,3373.00,3192.00,3465.15,499.45,479.94,43.78,0000 0000 0000 0000 000000
2014-07-06 02:45:59,-0.01,0.28,0.00,29.88,34.20,36.43,9.23,36.82,1005.89,2010.85,3372.95,3191.99,3465.00,500.12,480.33,43.82,0000 0000 0000 0000 000000
2014-07-06 02:51:00,-0.01,0.28,0.00,29.89,34.22,36.45,9.21,36.88,1005.89,2010.62,3372.45,3191.82,3464.96,499.86,480.23,43.86,0000 0000 0000 0000 000000
2014-07-06 02:56:01,0.01,0.28,0.00,29.86,34.25,36.47,9.23,36.83,1005.89,2010.43,3372.04,3191.38,3464.59,500.27,480.25,43.90,0000 0000 0000 0000 000000
2014-07-06 03:01:02,-0.01,0.28,0.00,29.87,34.26,36.48,9.27,36.73,1005.89,2010.13,3371.99,3191.02,3464.04,500.18,480.53,43.95,0000 0000 0000 0000 000000
2014-07-06 03:06:03,-0.00,0.28,0.00,29.92,34.28,36.48,9.26,36.87,1005.88,2010.06,3371.92,3191.00,3464.00,500.12,480.45,43.99,0000 0000 0000 0000 000000
2014-07-06 03:11:04,0.03,0.28,0.00,29.99,34.30,36.48,9.27,36.97,1005.88,2010.01,3371.24,3190.79,3463.79,500.27,480.30,44.03,0000 0000 0000 0000 000000
2014-07-06 03:16:05,0.08,0.28,0.00,30.03,34.32,36.49,9.15,36.86,1005.87,2010.00,3370.08,3189.80,3462.75,499.45,479.65,44.07,0000 0000 0000 0000 000000
2014-07-06 03:21:06,0.06,0.29,0.00,30.08,34.34,36.50,9.24,37.00,1005.87,2010.00,3368.83,3188.86,3461.71,499.87,479.96,44.11,0000 0000 0000 0000 000000
2014-07-06 03:26:07,0.06,0.29,0.00,30.14,34.36,36.51,9.24,37.67,1005.87,2010.00,3367.71,3187.94,3460.80,500.21,479.99,44.15,0000 0000 0000 0000 000000
2014-07-06 03:31:08,0.07,0.29,0.00,30.20,34.38,36.53,9.14,38.31,1005.83,2010.00,3366.15,3186.99,3459.76,499.65,479.39,44.20,0000 0000 0000 0000 000000
2014-07-06 03:36:09,0.04,0.30,0.00,30.29,34.41,36.56,9.22,37.73,1005.78,2009.96,3365.52,3186.32,3459.03,499.80,479.39,44.24,0000 0000 0000 0000 000000
2014-07-06 03:41:10,-0.01,0.30,0.00,30.34,34.44,36.58,9.15,37.19,1005.61,2009.83,3365.06,3186.01,3458.97,499.72,479.11,44.28,0000 0000 0000 0000 000000
2014-07-06 03:46:11,-0.02,0.30,0.00,30.40,34.46,36.61,9.21,36.98,1005.49,2009.40,3364.99,3185.99,3458.34,499.93,479.36,44.32,0000 0000 0000 0000 000000
2014-07-06 03:51:12,-0.01,0.29,0.00,30.46,34.49,36.64,9.16,36.77,1005.53,2009.25,3364.77,3185.84,3458.02,499.92,479.13,44.36,0000 0000 0000 0000 000000
2014-07-06 03:56:13,0.01,0.30,0.00,30.52,34.53,36.68,9.22,36.90,1005.50,2009.04,3364.13,3185.20,3457.97,499.93,479.04,44.40,0000 0000 0000 0000 000000
2014-07-06 04:01:14,0.00,0.30,0.00,30.57,34.56,36.71,9.21,36.86,1005.51,2009.00,3364.00,3185.00,3457.60,500.16,479.11,44.45,0000 0000 0000 0000 000000
2014-07-06 04:06:15,0.01,0.30,0.00,30.63,34.58,36.75,9.20,36.81,1005.67,2009.00,3363.72,3184.98,3457.04,500.11,478.94,44.49,0000 0000 0000 0000 000000
2014-07-06 04:11:16,0.03,0.30,0.00,30.67,34.61,36.78,9.22,36.88,1005.48,2008.98,3363.06,3184.39,3456.96,500.15,479.02,44.53,0000 0000 0000 0000 000000
2014-07-06 04:16:17,0.01,0.30,0.00,30.72,34.65,36.82,9.13,36.87,1005.44,2008.95,3362.99,3184.02,3456.53,499.92,478.71,44.57,0000 0000 0000 0000 000000
2014-07-06 04:21:18,-0.03,0.30,0.00,30.79,34.68,36.86,9.21,36.92,1005.51,2008.64,3362.64,3183.99,3456.03,500.17,478.72,44.61,0000 0000 0000 0000 000000
2014-07-06 04:26:19,-0.01,0.30,0.00,30.83,34.71,36.90,9.17,36.70,1005.49,2008.12,3362.05,3183.58,3455.95,499.98,478.58,44.65,0000 0000 0000 0000 000000
2014-07-06 04:31:21,0.02,0.30,0.00,30.88,34.75,36.94,9.13,36.80,1005.57,2008.01,3361.88,3183.05,3455.40,499.51,477.94,44.69,0000 0000 0000 0000 000000
2014-07-06 04:36:22,0.02,0.30,0.00,30.93,34.79,36.98,9.15,36.69,1005.54,2008.00,3361.22,3182.98,3455.01,499.79,478.28,44.74,0000 0000 0000 0000 000000
2014-07-06 04:41:23,0.03,0.30,0.00,30.97,34.82,37.02,9.13,36.70,1005.49,2008.00,3360.99,3182.49,3454.75,499.87,478.32,44.78,0000 0000 0000 0000 000000
2014-07-06 04:46:24,0.02,0.30,0.00,31.01,34.86,37.06,9.19,36.82,1005.45,2007.93,3360.56,3182.02,3454.07,500.23,478.52,44.82,0000 0000 0000 0000 000000
2014-07-06 04:51:25,-0.04,0.30,0.00,31.06,34.90,37.10,9.17,38.04,1005.42,2007.55,3360.02,3181.89,3453.94,499.62,477.84,44.86,0000 0000 0000 0000 000000
2014-07-06 04:56:26,0.01,0.30,0.00,31.11,34.94,37.14,9.20,38.17,1005.53,2007.13,3359.77,3181.30,3453.41,499.71,478.05,44.90,0000 0000 0000 0000 000000
2014-07-06 05:01:27,0.01,0.30,0.00,31.16,34.98,37.19,9.21,36.94,1005.71,2007.01,3359.19,3181.01,3453.01,500.13,478.15,44.94,0000 0000 0000 0000 000000
2014-07-06 05:06:28,0.02,0.30,0.00,31.22,35.02,37.23,9.14,36.70,1005.75,2007.00,3358.96,3180.80,3452.54,500.05,478.28,44.99,0000 0000 0000 0000 000000
2014-07-06 05:11:29,0.02,0.30,0.00,31.28,35.06,37.27,9.22,36.75,1005.77,2006.93,3358.43,3180.15,3452.02,500.29,478.29,45.03,0000 0000 0000 0000 000000
2014-07-06 05:16:31,-0.04,0.30,0.00,31.34,35.10,37.32,9.23,36.77,1005.75,2006.47,3358.01,3180.00,3451.85,500.20,477.98,45.07,0000 0000 0000 0000 000000
2014-07-06 05:21:32,-0.01,0.30,0.00,31.39,35.14,37.36,9.10,36.67,1005.78,2006.08,3357.82,3179.69,3451.12,499.88,477.75,45.11,0000 0000 0000 0000 000000
2014-07-06 05:26:33,0.02,0.30,0.00,31.45,35.19,37.41,9.17,36.70,1005.73,2006.01,3357.07,3179.05,3450.89,499.87,477.66,45.15,0000 0000 0000 0000 000000
2014-07-06 05:31:34,0.02,0.30,0.00,31.49,35.23,37.46,9.15,36.70,1005.67,2006.00,3356.91,3178.92,3450.16,500.11,477.85,45.19,0000 0000 0000 0000 000000
2014-07-06 05:36:35,0.04,0.30,0.00,31.53,35.27,37.51,9.12,36.56,1005.77,2005.99,3356.28,3178.26,3449.99,499.83,477.45,45.24,0000 0000 0000 0000 000000
2014-07-06 05:41:36,-0.01,0.30,0.00,31.58,35.31,37.55,9.18,36.62,1005.80,2005.80,3355.89,3177.99,3449.54,500.45,477.81,45.28,0000 0000 0000 0000 000000
2014-07-06 05:46:37,-0.01,0.30,0.00,31.62,35.35,37.60,9.10,36.69,1005.71,2005.24,3355.13,3177.33,3448.92,499.71,477.23,45.32,0000 0000 0000 0000 000000
2014-07-06 05:51:38,0.00,0.30,0.00,31.68,35.40,37.65,9.13,36.55,1005.74,2005.03,3354.98,3177.00,3448.20,499.64,477.12,45.36,0000 0000 0000 0000 000000
2014-07-06 05:56:39,0.03,0.30,0.00,31.72,35.44,37.69,9.12,37.62,1005.78,2005.00,3354.43,3176.70,3447.99,500.23,477.47,45.40,0000 0000 0000 0000 000000
2014-07-06 06:01:40,0.02,0.30,0.00,31.76,35.48,37.74,9.22,38.11,1005.85,2004.93,3353.93,3176.02,3447.32,500.73,478.12,45.44,0000 0000 0000 0000 000000
2014-07-06 06:06:42,-0.02,0.30,0.00,31.81,35.52,37.78,9.18,37.48,1005.87,2004.59,3353.26,3175.92,3446.99,499.66,477.07,45.48,0000 0000 0000 0000 000000
2014-07-06 06:11:43,0.00,0.30,0.00,31.83,35.57,37.83,9.04,37.06,1005.87,2004.11,3352.97,3175.17,3446.40,499.64,476.92,45.53,0000 0000 0000 0000 000000
2014-07-06 06:16:44,0.01,0.30,0.00,31.87,35.61,37.87,9.11,37.17,1005.87,2004.00,3352.41,3174.97,3445.99,499.86,477.10,45.57,0000 0000 0000 0000 000000
2014-07-06 06:21:45,0.04,0.30,0.00,31.92,35.66,37.92,9.19,37.17,1005.87,2004.00,3351.99,3174.26,3445.33,500.23,477.24,45.61,0000 0000 0000 0000 000000
2014-07-06 06:26:45,0.00,0.31,0.00,31.95,35.70,37.96,9.17,37.30,1005.87,2003.91,3351.51,3174.00,3445.00,500.10,477.05,45.65,0000 0000 0000 0000 000000
2014-07-06 06:31:46,-0.03,0.31,0.00,31.98,35.75,38.00,9.24,37.07,1005.87,2003.55,3351.02,3173.82,3444.64,500.29,477.38,45.69,0000 0000 0000 0000 000000
2014-07-06 06:36:47,-0.01,0.30,0.00,32.01,35.79,38.05,9.11,36.89,1005.87,2003.10,3350.79,3173.14,3444.04,499.78,476.73,45.73,0000 0000 0000 0000 000000
2014-07-06 06:41:48,0.02,0.30,0.00,32.05,35.84,38.09,9.09,37.00,1005.87,2003.00,3350.06,3172.86,3443.60,500.09,476.90,45.78,0000 0000 0000 0000 000000
2014-07-06 06:46:49,0.03,0.31,0.00,32.07,35.88,38.13,9.01,36.76,1005.88,2002.99,3349.74,3172.20,3443.02,499.39,476.30,45.82,0000 0000 0000 0000 000000
2014-07-06 06:51:50,-0.01,0.31,0.00,32.11,35.93,38.17,9.03,36.73,1005.90,2002.78,3349.09,3172.00,3442.67,499.30,476.25,45.86,0000 0000 0000 0000 000000
2014-07-06 06:56:51,-0.03,0.31,0.00,32.17,35.97,38.21,9.17,36.80,1005.96,2002.35,3348.96,3171.75,3442.07,500.22,476.84,45.90,0000 0000 0000 0000 000000
2014-07-06 07:01:53,0.02,0.31,0.00,32.21,36.01,38.24,9.09,36.73,1006.13,2002.03,3348.26,3171.04,3441.85,499.77,476.52,45.94,0000 0000 0000 0000 000000
2014-07-06 07:06:54,0.01,0.31,0.00,32.25,36.05,38.28,9.06,36.64,1006.31,2002.00,3348.00,3170.95,3441.11,499.50,476.43,45.98,0000 0000 0000 0000 000000
2014-07-06 07:11:55,0.04,0.31,0.00,32.28,36.09,38.32,9.16,36.75,1006.36,2001.97,3347.38,3170.25,3440.91,499.97,476.56,46.02,0000 0000 0000 0000 000000
2014-07-06 07:16:56,-0.01,0.31,0.00,32.35,36.14,38.36,9.14,36.63,1006.36,2001.74,3346.99,3169.98,3440.18,500.00,476.54,46.07,0000 0000 0000 0000 000000
2014-07-06 07:21:57,-0.02,0.31,0.00,32.38,36.17,38.39,9.14,36.73,1006.44,2001.21,3346.56,3169.52,3439.99,499.42,476.07,46.11,0000 0000 0000 0000 000000
2014-07-06 07:26:58,0.02,0.31,0.00,32.43,36.21,38.42,9.10,36.90,1006.73,2001.01,3346.01,3169.03,3439.36,499.80,476.43,46.15,0000 0000 0000 0000 000000
2014-07-06 07:31:59,0.05,0.31,0.00,32.47,36.25,38.46,9.11,36.68,1006.84,2001.00,3345.33,3168.58,3438.78,499.74,476.50,46.19,0000 0000 0000 0000 000000
2014-07-06 07:37:00,0.02,0.31,0.00,32.51,36.29,38.51,9.21,36.75,1006.85,2000.96,3344.92,3168.02,3438.05,500.10,476.77,46.23,0000 0000 0000 0000 000000
2014-07-06 07:42:01,0.01,0.31,0.00,32.56,36.33,38.54,9.18,36.92,1006.86,2000.64,3344.19,3167.51,3437.54,500.34,476.98,46.27,0000 0000 0000 0000 000000
2014-07-06 07:47:02,0.00,0.31,0.00,32.60,36.37,38.58,9.10,36.66,1006.90,2000.37,3343.08,3166.91,3436.91,499.70,476.22,46.32,0000 0000 0000 0000 000000
2014-07-06 07:52:03,0.02,0.31,0.00,32.65,36.41,38.62,9.11,36.62,1007.06,2000.07,3342.53,3166.09,3436.11,499.88,476.26,46.36,0000 0000 0000 0000 000000
2014-07-06 07:57:04,0.16,0.31,0.00,32.69,36.45,38.66,9.12,36.82,1007.00,2000.02,3340.44,3164.71,3434.59,499.67,476.28,46.40,0000 0000 0000 0000 000000
2014-07-06 08:02:05,0.20,0.32,0.00,32.72,36.49,38.69,9.12,36.63,1007.25,2000.02,3337.10,3161.80,3431.26,500.03,476.60,46.44,0000 0000 0000 0000 000000
2014-07-06 08:07:06,0.17,0.33,0.00,32.75,36.53,38.73,9.13,36.65,1007.32,2000.00,3334.42,3159.26,3428.37,499.77,476.45,46.48,0000 0000 0000 0000 000000
2014-07-06 08:12:07,0.30,0.34,0.00,32.81,36.56,38.77,9.23,36.60,1007.34,2000.00,3330.73,3155.80,3424.27,500.59,476.91,46.52,0000 0000 0000 0000 000000
2014-07-06 08:17:09,0.19,0.35,0.00,32.86,36.60,38.81,9.13,36.38,1007.34,1999.99,3327.15,3152.33,3420.19,499.83,476.07,46.57,0000 0000 0000 0000 000000
2014-07-06 08:22:10,0.20,0.36,0.00,32.91,36.64,38.86,9.12,36.62,1007.34,1999.94,3324.29,3149.51,3416.92,500.04,476.18,46.61,0000 0000 0000 0000 000000
2014-07-06 08:27:12,0.14,0.37,0.00,32.93,36.68,38.89,9.12,36.53,1007.36,1999.65,3321.44,3146.89,3413.87,499.53,475.80,46.65,0000 0000 0000 0000 000000
2014-07-06 08:32:13,0.11,0.37,0.00,32.95,36.71,38.94,9.08,36.62,1007.51,1999.16,3318.97,3144.63,3411.23,499.71,476.11,46.69,0000 0000 0000 0000 000000
2014-07-06 08:37:14,0.15,0.38,0.00,32.99,36.75,38.98,9.11,36.23,1007.78,1999.02,3316.40,3142.27,3408.49,499.85,476.19,46.73,0000 0000 0000 0000 000000
2014-07-06 08:42:15,0.19,0.39,0.00,33.02,36.79,39.01,9.11,36.33,1007.80,1998.99,3313.82,3139.71,3405.54,500.32,476.57,46.77,0000 0000 0000 0000 000000
2014-07-06 08:47:16,0.18,0.39,0.00,33.06,36.82,39.06,9.17,36.50,1007.81,1998.94,3310.94,3137.12,3402.55,499.80,475.83,46.82,0000 0000 0000 0000 000000
2014-07-06 08:52:17,0.08,0.40,0.00,33.08,36.86,39.09,9.09,37.06,1007.83,1998.69,3308.66,3135.12,3400.23,500.01,476.16,46.86,0000 0000 0000 0000 000000
2014-07-06 08:57:18,0.08,0.40,0.00,33.10,36.89,39.12,9.08,36.64,1007.83,1998.30,3306.97,3133.49,3398.12,499.81,476.01,46.90,0000 0000 0000 0000 000000
2014-07-06 09:02:19,0.09,0.41,0.00,33.11,36.93,39.17,9.06,36.77,1007.83,1998.04,3305.26,3131.82,3396.10,499.72,475.67,46.94,0000 0000 0000 0000 000000
2014-07-06 09:07:20,0.11,0.41,0.00,33.12,36.96,39.20,9.16,36.75,1007.83,1998.00,3303.72,3130.21,3394.31,500.32,476.35,46.98,0000 0000 0000 0000 000000
2014-07-06 09:12:21,0.13,0.42,0.00,33.10,36.99,39.23,9.10,36.41,1007.83,1998.00,3301.95,3128.52,3392.37,499.62,475.80,47.02,0000 0000 0000 0000 000000
2014-07-06 09:17:23,0.13,0.42,0.00,33.09,37.02,39.25,9.12,36.52,1007.84,1997.95,3299.97,3126.57,3390.30,500.30,476.30,47.06,0000 0000 0000 0000 000000
2014-07-06 09:22:24,0.08,0.43,0.00,33.09,37.05,39.28,9.13,36.80,1007.83,1997.78,3298.13,3124.83,3388.42,500.09,476.39,47.11,0000 0000 0000 0000 000000
2014-07-06 09:27:25,0.02,0.43,0.00,33.06,37.08,39.31,9.13,36.71,1007.84,1997.36,3297.02,3123.76,3387.07,499.92,476.19,47.15,0000 0000 0000 0000 000000
2014-07-06 09:32:26,0.07,0.43,0.00,33.07,37.10,39.34,9.12,36.63,1007.85,1997.10,3295.81,3122.53,3385.68,500.30,476.42,47.19,0000 0000 0000 0000 000000
2014-07-06 09:37:27,0.08,0.43,0.00,33.07,37.13,39.36,9.16,36.51,1007.91,1997.04,3294.55,3121.23,3384.19,500.11,476.34,47.23,0000 0000 0000 0000 000000
2014-07-06 09:42:28,0.09,0.44,0.00,33.09,37.15,39.38,9.10,36.49,1008.10,1997.00,3293.27,3119.86,3382.62,499.80,476.12,47.27,0000 0000 0000 0000 000000
2014-07-06 09:47:29,0.06,0.44,0.00,33.13,37.18,39.40,9.15,36.67,1008.20,1997.00,3292.16,3118.86,3381.44,500.08,476.41,47.31,0000 0000 0000 0000 000000
2014-07-06 09:52:30,0.08,0.44,0.00,33.13,37.19,39.42,9.09,36.49,1008.23,1996.97,3291.13,3117.68,3380.17,499.84,476.04,47.36,0000 0000 0000 0000 000000
2014-07-06 09:57:32,0.06,0.45,0.00,33.12,37.22,39.43,9.15,36.84,1008.30,1996.84,3289.97,3116.54,3378.78,499.88,476.24,47.40,0000 0000 0000 0000 000000
2014-07-06 10:02:33,0.06,0.45,0.00,33.10,37.24,39.46,9.12,36.61,1008.31,1996.71,3289.02,3115.47,3377.62,500.00,476.28,47.44,0000 0000 0000 0000 000000
2014-07-06 10:07:34,0.00,0.45,0.00,33.10,37.25,39.47,9.19,36.73,1008.31,1996.42,3288.17,3114.86,3376.86,500.36,476.63,47.48,0000 0000 0000 0000 000000
2014-07-06 10:12:35,0.03,0.45,0.00,33.09,37.27,39.48,9.16,36.77,1008.32,1996.21,3287.69,3114.08,3376.05,500.19,476.47,47.52,0000 0000 0000 0000 000000
2014-07-06 10:17:36,0.04,0.45,0.00,33.06,37.28,39.50,9.15,36.71,1008.32,1996.05,3286.89,3113.33,3375.15,499.97,476.39,47.56,0000 0000 0000 0000 000000
2014-07-06 10:22:37,0.05,0.46,0.00,33.02,37.30,39.52,9.12,36.60,1008.33,1996.00,3286.02,3112.60,3374.30,499.77,476.31,47.61,0000 0000 0000 0000 000000
2014-07-06 10:27:38,0.05,0.46,0.00,33.00,37.30,39.53,9.10,36.87,1008.37,1996.00,3285.19,3111.87,3373.27,499.63,476.25,47.65,0000 0000 0000 0000 000000
2014-07-06 10:32:39,0.03,0.46,0.00,32.96,37.33,39.54,9.17,36.71,1008.43,1996.00,3284.85,3111.10,3372.83,500.19,476.70,47.69,0000 0000 0000 0000 000000
2014-07-06 10:37:40,0.02,0.46,0.00,32.93,37.33,39.55,9.17,37.76,1008.53,1996.00,3284.37,3110.99,3372.32,500.01,476.83,47.73,0000 0000 0000 0000 000000
2014-07-06 10:42:41,0.01,0.46,0.00,32.90,37.33,39.55,9.15,38.17,1008.49,1996.00,3284.00,3110.73,3372.00,500.39,477.25,47.77,0000 0000 0000 0000 000000
2014-07-06 10:47:42,0.03,0.46,0.00,32.88,37.33,39.55,9.12,37.20,1008.56,1996.00,3283.77,3110.12,3371.75,499.64,476.39,47.81,0000 0000 0000 0000 000000
2014-07-06 10:52:44,0.02,0.46,0.00,32.85,37.34,39.56,9.17,37.28,1008.47,1995.99,3283.09,3109.94,3371.04,499.80,476.70,47.85,0000 0000 0000 0000 000000
2014-07-06 10:57:45,0.05,0.47,0.00,32.82,37.34,39.56,9.22,37.36,1008.54,1995.97,3282.67,3109.16,3370.53,500.13,476.86,47.90,0000 0000 0000 0000 000000
2014-07-06 11:02:46,0.01,0.47,0.00,32.79,37.34,39.55,9.19,37.07,1008.40,1995.94,3282.09,3109.00,3370.02,500.03,477.06,47.94,0000 0000 0000 0000 000000
2014-07-06 11:07:46,-0.00,0.47,0.00,32.76,37.34,39.55,9.17,36.89,1008.36,1995.93,3282.01,3108.98,3369.99,500.17,477.11,47.98,0000 0000 0000 0000 000000
2014-07-06 11:12:48,0.02,0.47,0.00,32.72,37.33,39.54,9.12,37.04,1008.40,1995.96,3281.98,3108.74,3369.79,499.63,476.66,48.02,0000 0000 0000 0000 000000
2014-07-06 11:17:49,0.04,0.47,0.00,32.69,37.33,39.54,9.11,36.67,1008.48,1995.94,3281.73,3108.06,3369.09,499.59,476.64,48.06,0000 0000 0000 0000 000000
2014-07-06 11:22:50,0.01,0.47,0.00,32.65,37.33,39.53,9.11,36.84,1008.46,1995.96,3281.22,3108.00,3369.00,499.61,476.78,48.10,0000 0000 0000 0000 000000
2014-07-06 11:27:51,0.00,0.47,0.00,32.61,37.31,39.51,9.17,36.98,1008.46,1995.98,3281.06,3108.00,3369.00,499.68,476.92,48.15,0000 0000 0000 0000 000000
2014-07-06 11:32:52,-0.00,0.47,0.00,32.56,37.30,39.51,9.22,36.91,1008.58,1995.98,3281.01,3108.00,3369.00,500.08,477.38,48.19,0000 0000 0000 0000 000000
2014-07-06 11:37:53,0.00,0.47,0.00,32.53,37.30,39.50,9.24,36.83,1008.60,1995.99,3281.00,3107.99,3368.95,500.36,477.84,48.23,0000 0000 0000 0000 000000
2014-07-06 11:42:54,0.01,0.47,0.00,32.50,37.28,39.48,9.21,36.92,1008.60,1995.99,3281.00,3107.92,3368.78,499.99,477.53,48.27,0000 0000 0000 0000 000000
2014-07-06 11:47:55,-0.00,0.47,0.00,32.48,37.27,39.47,9.20,36.77,1008.71,1995.99,3281.00,3107.89,3368.65,499.79,477.40,48.31,0000 0000 0000 0000 000000
2014-07-06 11:52:56,0.00,0.47,0.00,32.44,37.25,39.45,9.25,36.66,1008.79,1995.99,3280.96,3107.86,3368.42,500.32,477.98,48.35,0000 0000 0000 0000 000000
2014-07-06 11:57:57,-0.01,0.47,0.00,32.39,37.24,39.43,9.19,36.84,1008.76,1995.99,3280.98,3107.90,3368.61,499.54,477.37,48.40,0000 0000 0000 0000 000000
2014-07-06 12:02:59,0.00,0.47,0.00,32.36,37.23,39.41,9.14,36.71,1008.78,1995.99,3280.94,3107.92,3368.57,499.87,477.67,48.44,0000 0000 0000 0000 000000
2014-07-06 12:08:00,0.01,0.47,0.00,32.34,37.20,39.39,9.21,36.80,1008.80,1996.00,3280.78,3107.86,3368.31,500.36,478.06,48.48,0000 0000 0000 0000 000000
2014-07-06 12:13:01,-0.01,0.47,0.00,32.30,37.19,39.37,9.18,36.71,1008.80,1996.02,3280.90,3107.94,3368.68,500.06,477.84,48.52,0000 0000 0000 0000 000000
2014-07-06 12:18:01,0.01,0.47,0.00,32.27,37.17,39.36,9.25,36.67,1008.81,1996.13,3280.96,3107.98,3368.86,499.95,477.88,48.56,0000 0000 0000 0000 000000
2014-07-06 12:23:03,0.03,0.47,0.00,32.24,37.15,39.33,9.20,36.88,1008.81,1996.17,3280.52,3107.75,3368.24,499.63,477.72,48.60,0000 0000 0000 0000 000000
2014-07-06 12:28:04,0.02,0.47,0.00,32.20,37.13,39.31,9.18,36.78,1008.81,1996.10,3280.08,3107.21,3368.01,500.04,478.18,48.65,0000 0000 0000 0000 000000
2014-07-06 12:33:05,0.04,0.48,0.00,32.16,37.10,39.29,9.22,36.73,1008.81,1996.36,3280.03,3107.06,3368.00,500.11,478.27,48.69,0000 0000 0000 0000 000000
2014-07-06 12:38:06,0.02,0.48,0.00,32.12,37.09,39.28,9.22,36.90,1008.81,1996.64,3280.02,3107.09,3368.00,499.88,478.22,48.73,0000 0000 0000 0000 000000
2014-07-06 12:43:07,0.02,0.48,0.00,32.09,37.06,39.25,9.18,36.72,1008.87,1996.86,3280.01,3107.18,3368.00,499.98,478.34,48.77,0000 0000 0000 0000 000000
2014-07-06 12:48:08,0.00,0.48,0.00,32.06,37.04,39.23,9.25,36.67,1009.19,1996.97,3280.05,3107.46,3368.03,500.26,478.71,48.81,0000 0000 0000 0000 000000
2014-07-06 12:53:09,-0.00,0.48,0.00,32.05,37.02,39.20,9.21,36.51,1009.30,1996.99,3280.08,3107.60,3368.03,499.81,478.25,48.85,0000 0000 0000 0000 000000
2014-07-06 12:58:10,-0.01,0.48,0.00,32.01,36.99,39.18,9.17,36.44,1009.33,1996.99,3280.20,3107.89,3368.15,499.71,478.18,48.90,0000 0000 0000 0000 000000